Regional Weather Roundup
Issued by NWS Sterling, VA

Home | Current Version | Previous Version | Graphics & Text | Print | Product List | Glossary On
Versions: 1 2 3 4 5 6 7 8 9 10 11 12 13 14 15 16 17 18 19 20 21 22 23 24 25 26 27 28 29 30 31 32 33 34 35 36 37 38 39 40 41 42 43 44 45 46 47 48 49 50
000
ASUS41 KLWX 182311
RWRLWX

REGIONAL WEATHER ROUNDUP
NATIONAL WEATHER SERVICE BALTIMORE MD/WASHINGTON DC
700 PM EDT WED APR 18 2018

Note: "FAIR" indicates few or no clouds below 12,000 feet
with no significant weather and/or obstructions to visibility.
 TC=TEMPERATURE CELSIUS

 * =Non NWS site. Station does not report precipitation (e.g. rain,
    snow, etc.), thunder, or fog.

DCZ001-MDZ009-015-VAZ040>042-051-053>054-190000-
WASHINGTON METRO

CITY           SKY/WX    TMP DP  RH WIND       PRES   REMARKS
WASHINGTON NAT FAIR      61  39  44 SE3       29.76F
DULLES         FAIR      62  39  42 S7        29.75F
ANDREWS AFB    FAIR      58  39  48 E9        29.76S
FT BELVOIR     FAIR      62  37  38 CALM      29.75F
QUANTICO       FAIR      61  45  55 SE10      29.75F
COLLEGE PARK*  FAIR      60  34  37 CALM      29.76F
LEESBURG*      FAIR      63  39  42 CALM      29.76F
MANASSAS*      FAIR      63  39  41 CALM      29.75F
GAITHERSBURG*  FAIR      59  36  42 SE6       29.77F

$$

MDZ006>007-011-014-190000-
BALTIMORE METRO

CITY           SKY/WX    TMP DP  RH WIND       PRES   REMARKS
BWI AIRPORT    FAIR      59  37  44 CALM      29.77F
MD SCIENCE CTR   N/A     58  36  43 MISG      29.79F
MARTIN STATE   CLEAR     55  39  54 SE6       29.80F
ANNAPOLIS      FAIR      56  40  55 S8        29.78F
FORT MEADE*    FAIR      59  36  41 CALM      29.80S

$$

MDZ012-015-019>023-190000-
MARYLAND EASTERN SHORE

CITY           SKY/WX    TMP DP  RH WIND       PRES   REMARKS
OCEAN CITY     FAIR      49  41  74 S8        29.83S
SALISBURY      FAIR      57  38  48 S3        29.80F
BAY BRIDGE AP* FAIR      57  39  51 S6        29.79F
CAMBRIDGE*     CLEAR     55  39  54 S6        29.79F
EASTON*        CLEAR     59  34  38 CALM      29.82F

$$

MDZ017>025-190000-
SOUTHERN MARYLAND

CITY           SKY/WX    TMP DP  RH WIND       PRES   REMARKS
PATUXENT RIVER FAIR      55  43  63 SE7       29.78F
ST INIGOES     FAIR      54  43  66 E8        29.78F
LEONARDTOWN*   FAIR      54  37  54 E7        29.79F

$$

MDZ003>005-190000-
NORTH CENTRAL MARYLAND

CITY           SKY/WX    TMP DP  RH WIND       PRES   REMARKS
FREDERICK*     CLEAR     61  32  33 S3        29.79F
HAGERSTOWN APT MOCLDY    58  32  37 SE7       29.75F
WESTMINSTER*   FAIR      57  34  41 CALM      29.77F

$$

MDZ501>502-190000-
WESTERN MARYLAND

CITY           SKY/WX    TMP DP  RH WIND       PRES   REMARKS
OAKLAND*       FAIR      50  37  62 CALM      29.72F
CUMBERLAND*    CLOUDY    63  34  34 CALM      29.74F

$$

VAZ025>031-190000-
SHENANDOAH VALLEY

CITY           SKY/WX    TMP DP  RH WIND       PRES   REMARKS
WINCHESTER*    FAIR      59  37  44 E5        29.75F
FRONT ROYAL*   FAIR      63  41  45 NE3       29.71F
LURAY*         FAIR      64  41  42 NE5       29.70F
NEW MARKET*    FAIR      65  42  42 N7        29.68S
STAUNTON*      FAIR      69  45  41 SE6       29.70F
WAYNESBORO*    FAIR      70  45  40 S10G17    29.69F

$$

WVZ021-048>050-054>055-190000-
EASTERN WEST VIRGINIA PANHANDLE

CITY           SKY/WX    TMP DP  RH WIND       PRES   REMARKS
MARTINSBURG    FAIR      59  36  42 SE7       29.73F
PETERSBURG*    FAIR      65  48  54 CALM      29.68S

$$

VAZ036>039-050-190000-
CENTRAL FOOTHILLS

CITY           SKY/WX    TMP DP  RH WIND       PRES   REMARKS
CHARLOTTESVILL FAIR      72  46  39 S5        29.69F
CULPEPER*      FAIR      65  38  35 NE5       29.74F
ORANGE*        FAIR      66  43  42 CALM      29.71F
GORDONSVILLE*  FAIR      72  46  39 S3        29.70S
WARRENTON*     FAIR      65  35  33 CALM      29.73F

$$

VAZ055>057-190000-
NORTH AND CENTRAL PIEDMONT

CITY           SKY/WX    TMP DP  RH WIND       PRES   REMARKS
FREDERICKSBRG* FAIR      66  42  41 E7        29.72F
STAFFORD*      FAIR      65  41  42 E13       29.76F

$$

NCZ024-NYZ072-PAZ021-071-VAZ022-071-190000-
OTHER REGIONAL OBSERVATIONS

CITY           SKY/WX    TMP DP  RH WIND       PRES   REMARKS
NEW YORK CITY  FAIR      52  28  39 W5        29.80S
PHILADELPHIA   FAIR      54  29  38 SW6       29.79F
PITTSBURGH     CLOUDY    53  30  41 S3        29.73S
ROANOKE        FAIR      80  46  30 S13G21    29.67F
RICHMOND       FAIR      72  49  44 SE9       29.71F
RALEIGH        FAIR      78  48  34 SW14      29.73F

$$

ANZ530>537-190000-
MARINE OBSERVATIONS

STATION/POSITION TIME  TEMP    WIND        PRES
                       AIR SEA DIR/SP/G
                 (UTC) (F)     (DEG/KT/KT) (MB)
THOMAS PT LIGHT  2300   51 51  190/  9/  9 1009.5F
BALT KEY BRIDGE  2242   53     110/ 10/ 11 1008.5F
COVE POINT       2242   51     170/ 11/ 12 1009.4F
LEWISETTA        2242   56 55  140/  9/ 11 1008.2F
SOLOMONS ISLAND  2242   52 53  130/  9/ 11 1008.4F
PINEY POINT      2248          120/ 11/ 13   N/A

$$




USA.gov is the U.S. government's official web portal to all federal, state and local government web resources and services.